Погода в Покровском

Россия / Тамбовская область     52°39′40″N   40°12′57″E
В апреле 2022 года жителям России запретили посещать сайт meteo.paraplan.net по решению Генеральной прокуратуры. Аудитория сайта уменьшилась в 10 раз. Владельцы сайта не видят смысла в поддержке погодного сервера в таких условиях. Сайт будет закрыт в октябре.
темп.,
°C
ветер,
м/с
пор.,
м/с
влажн.,
%
обл.,
%
осадки,
мм/ч
давл.,
гПа
погр.,
м
3 октября, пн
пн300:00+16вюв41291100 0.9 1000375
03:00+17ююв101877100 2.0 9981061
06:00+15юв101979100 0.9 9961069
09:00+13ююз51390100 4.1 997961
12:00+12ююз91475100 1.1 10021356
15:00+12ююз9176950 1.1 10051656
18:00+11ю7147743 0.0 1008942
21:00+11ю715785 0.0 1009741
4 октября, вт
вт400:00+10ю715805 0.0 1010532
03:00+10ююв7167835 0.0 1011537
06:00+9ю715765 0.0 1012518
09:00+11ююв7147177 0.0 1013668
12:00+15ю81460100 0.0 10131667
15:00+14ю7126994 0.1 10131085
18:00+12ю6138171 1.8 1014570
21:00+11ююз4989100 2.4 1015319
5 октября, ср
ср500:00+11ююз4981100 0.0 1015498
03:00+10ююз51180100 0.0 1015586
06:00+9ююз51181100 0.0 1016579
09:00+9ююз61080100 0.1 10161037
12:00+11юз697292 0.1 10161093
15:00+10зюз71078100 0.8 10171369
18:00+8юз378526 0.1 1018193
21:00+8зюз488271 0.2 1019420
6 октября, чт
чт600:00+6зюз378948 0.1 1019190
03:00+7юз4889100 0.1 1020269
06:00+8зюз498939 0.0 1020459
09:00+8з3792100 0.2 1020439
12:00+9зюз4788100 0.3 1020628
15:00+11зюз498770 0.6 1019619
18:00+12юз4983100 0.0 1019285
21:00+10зюз4119162 0.0 1019293
7 октября, пт
пт700:00+11зюз5128773 0.0 1019484
03:00+10зюз512925 0.0 1018353
06:00+9з4109624 0.0 1019289
09:00+11зсз6989100 0.0 1020571
12:00+14зсз57630 0.0 1021912
15:00+16зсз68550 0.0 10211098
18:00+11зсз37730 0.0 1023120
21:00+9зсз38850 0.0 1024201